Regional Weather Roundup
Issued by NWS

Home | Current Version | Previous Version | Graphics & Text | Print | Product List | Glossary On
Versions: 1 2 3 4 5 6 7 8 9 10 11 12 13 14 15 16 17 18 19 20 21 22 23 24 25 26 27 28 29 30 31 32 33 34 35 36 37 38 39 40 41 42 43 44 45 46 47 48 49 50
000
ASUS43 KIND 210859
RWRIN

WEATHER ROUNDUP FOR INDIANA
NATIONAL WEATHER SERVICE INDIANAPOLIS IN
500 AM EDT MON MAY 21 2018

NOTE: "FAIR" INDICATES FEW OR NO CLOUDS BELOW 12,000 FEET WITH NO
SIGNIFICANT WEATHER AND/OR OBSTRUCTIONS TO VISIBILITY.

* - STATION DOES NOT REPORT WEATHER SUCH AS PRECIPITATION OR FOG.

+ - STATION NOT QUALITY CONTROLLED BY THE NATIONAL WEATHER SERVICE.
    USE DATA WITH CAUTION...ESPECIALLY DEWPOINT AND RELATIVE
    HUMIDITY OBSERVATIONS.

INZ001>003-010>013-019-020-211000-
NORTHWEST INDIANA

CITY           SKY/WX    TMP DP  RH WIND       PRES   REMARKS
MICHIGAN CITY+ CLOUDY    54  54 100 CALM      30.14S
MONTICELLO +   MOCLDY   N/A N/A N/A E6        30.10S

$$

LMZ046-743>745-211000-
SOUTHERN LAKE MICHIGAN

STATION/POSITION TIME  TEMP    WIND        PRES    WAVE
                       AIR SEA DIR/SP/G            HT
                 (UTC) (F)     (DEG/KT/KT) (MB)    (FT)
BURNS HARBOR     0840   51        CALM     1021.0S
5NW MICH CITY    0850   53 53   70/  6/  8   N/A     2

$$

INZ004-005-014>016-021>024-211000-
NORTH CENTRAL INDIANA

CITY           SKY/WX    TMP DP  RH WIND       PRES   REMARKS
GOSHEN         MOCLDY    60  57  89 E9        30.15S FOG
SOUTH BEND     CLOUDY    58  56  93 E7        30.15F

$$

INZ006>009-017-018-025>027-211000-
NORTHEAST INDIANA

CITY           SKY/WX    TMP DP  RH WIND       PRES   REMARKS
ANGOLA *+      CLOUDY    57  55  94 E10       30.17S FOG
FORT WAYNE     CLOUDY    59  56  89 E8        30.16R

$$

INZ028-029-035-036-043>045-051>053-211000-
WEST CENTRAL INDIANA

CITY           SKY/WX    TMP DP  RH WIND       PRES   REMARKS
GREENCASTLE +  FAIR      64  63  94 CALM      30.08S FOG
LAFAYETTE      MOCLDY    63  61  93 E10       30.09S
TERRE HAUTE    FAIR      66  64  93 CALM      30.06S

$$

INZ030>032-037>040-046>048-054>057-064-065-211000-
CENTRAL INDIANA

CITY           SKY/WX    TMP DP  RH WIND       PRES   REMARKS
ANDERSON       MOCLDY    61  57  87 CALM      30.13R
INDIANAPOLIS   FAIR      67  63  87 NE7       30.08F
-EAGLE CREEK   FAIR      66  62  87 E6        30.08F
KOKOMO +       MOCLDY    61  57  87 E10       30.13F
MT COMFORT *+  FAIR      63  63 100 E8        30.10F
SHELBYVILLE    FAIR      67  63  87 NE10      30.08F

$$

INZ033-034-041-042-049-050-058-059-211000-
EAST CENTRAL INDIANA

CITY           SKY/WX    TMP DP  RH WIND       PRES   REMARKS
MUNCIE         MOCLDY    62  58  86 E9        30.13R
RICHMOND +     FAIR      59  59 100 NE9       30.13S FOG

$$

INZ060-061-067>069-081>083-085>088-211000-
SOUTHWEST INDIANA

CITY           SKY/WX    TMP DP  RH WIND       PRES   REMARKS
EVANSVILLE     FAIR      70  64  81 NW6       30.07R
HUNTINGBURG +  FAIR      68  65  90 SE6       30.07R

$$

INZ062-063-066-070>080-084-089>092-211000-
SOUTH CENTRAL AND SOUTHEAST INDIANA

CITY           SKY/WX    TMP DP  RH WIND       PRES   REMARKS
BLOOMINGTON    FAIR      67  65  93 CALM      30.07S
FRENCH LICK *+ FAIR      64 N/A N/A CALM      30.08R
MADISON *+     FAIR      66  64  94 CALM      30.11R
SEYMOUR +      FAIR      66  64  94 CALM      30.07S

$$




USA.gov is the U.S. government's official web portal to all federal, state and local government web resources and services.